{"data":{"norad_id":45449,"epoch":"2026-05-25T02:16:26.918400Z","epoch_age_seconds":60171,"freshness":"FRESH","line1":"1 45449U 20020AB  26145.09475600 -.00000105  00000+0 -33317-3 0  9996","line2":"2 45449  87.8914  25.6491 0001650  80.8202 279.3113 13.11417711299513","mean_motion":13.11417711,"eccentricity":0.000165,"inclination_deg":87.8914,"raan_deg":25.6491,"arg_perigee_deg":80.8202,"mean_anomaly_deg":279.3113,"bstar":-0.00033317,"rev_number":29951,"period_min":109.80483090334,"perigee_km":1216.4264307955,"apogee_km":1218.9330503199,"semimajor_km":7595.8167405577,"source":"CELESTRAK","updated_at":"2026-05-25T13:38:22.346408Z"}}